Dewpoint
45 45 44 45 50 51 50 49 47 53 52 49 46 45 47 50 51 53 54 55 56 57 59 63 64 64 66 68 69 69 70 70 72 71 70 70 70 69 69 71 69 71 70 71
42 42 43 47 48 48 47 46 47 49 49 46 46 44 45 49 49 51 53 55 56 57 59 59 60 64 67 69 69 70 70 72 71 71 71 71 71 71 70 70 70 71 70 72
40 40 42 42 44 43 43 46 45 43 45 43 44 45 46 47 48 48 51 55 55 56 58 59 59 64 68 69 69 70 71 72 72 72 72 72 72 71 71 71 71 71 70 70
36 38 37 36 42 42 41 46 45 46 43 39 41 40 42 47 46 47 49 47 55 55 58 59 60 61 66 68 69 70 71 72 71 72 71 71 70 69 69 70 70 71 71 70
34 32 31 31 32 42 42 44 44 45 43 41 39 39 40 43 47 50 49 47 49 55 57 59 59 60 62 67 68 70 71 72 71 73 71 71 70 70 71 71 71 72 72 71
29 30 29 29 29 39 41 44 44 43 42 37 45 42 42 46 46 49 48 47 50 56 57 59 60 61 62 64 67 71 72 72 72 72 73 71 71 70 71 70 70 71 70 71
25 25 28 27 28 33 35 41 39 37 37 38 50 44 46 49 50 46 46 49 47 53 57 58 59 60 62 65 65 69 70 72 72 72 72 73 72 71 71 70 71 70 70 70
23 22 26 27 29 31 32 38 39 32 36 40 50 44 44 51 48 45 44 48 48 50 56 57 59 60 62 65 65 68 70 70 73 73 72 72 74 73 71 72 71 71 71 71
19 21 26 27 31 32 31 30 35 33 34 34 44 50 51 51 50 41 44 48 47 47 56 57 59 60 63 65 65 67 70 71 72 73 73 73 73 73 72 72 71 71 71 72
17 17 25 26 28 34 31 45 38 40 37 37 45 48 49 51 50 49 39 39 49 54 47 57 59 59 62 64 64 67 71 72 72 72 73 73 73 74 73 73 71 71 72 73
16 15 18 23 27 30 41 43 45 44 43 39 37 43 49 51 50 47 41 41 41 50 49 52 58 60 62 63 64 67 71 71 72 72 73 73 73 73 72 71 72 72 72 73
15 16 18 20 20 28 33 39 42 40 44 44 40 41 51 48 43 42 41 38 40 51 52 54 55 60 63 63 64 68 70 71 71 72 71 73 73 73 72 72 72 73 72 73
17 20 17 15 17 26 27 26 35 38 42 40 35 46 53 46 47 47 44 37 43 46 53 53 55 59 62 63 65 66 69 69 70 71 71 72 73 73 72 72 71 73 73 73
35 14 14 15 19 23 23 23 26 29 33 38 43 46 47 45 49 49 43 45 46 49 46 50 54 58 60 63 64 66 67 67 67 70 71 71 72 72 72 71 71 72 73 73
13 13 14 13 14 13 11 19 24 27 26 30 42 43 47 47 46 45 37 32 36 48 50 49 52 57 61 64 64 66 66 66 67 69 70 71 71 71 72 72 72 73 73 73
12 14 19 19 17 12 11 12 24 27 25 22 28 33 42 40 44 42 35 37 40 45 43 51 53 61 63 66 67 69 66 67 67 70 69 70 72 72 72 73 73 73 73 73
14 15 16 24 19 16 15 17 17 19 35 29 36 37 40 44 46 44 36 42 48 50 50 47 47 58 63 66 70 69 70 70 70 71 71 72 72 73 72 71 72 72 72 70
18 21 25 21 25 19 23 33 34 39 41 43 43 44 44 47 47 50 56 52 50 49 52 55 54 53 62 68 71 70 72 72 73 74 73 73 72 72 73 71 71 72 71 70
18 21 25 22 22 25 33 35 39 40 40 45 48 50 51 51 53 54 56 58 58 60 57 59 59 61 65 67 70 70 71 74 75 74 74 74 73 73 72 71 72 71 70 70
20 26 34 35 27 28 38 39 39 41 40 44 46 48 50 52 51 53 57 59 60 62 63 64 62 62 68 71 71 71 72 74 74 73 75 74 73 73 72 72 71 70 71 71
32 33 32 34 34 39 40 41 43 40 43 44 44 45 46 49 51 51 55 57 59 61 62 64 65 66 66 71 72 71 72 73 74 74 75 75 74 73 73 72 71 71 71 71
35 34 33 32 41 37 42 41 44 43 41 42 42 41 44 45 47 49 51 54 55 59 62 63 65 68 71 73 72 71 73 75 75 75 75 75 74 73 73 72 72 72 71 70
40 40 41 40 42 43 39 40 41 41 42 41 41 40 41 41 44 47 48 52 52 54 60 61 65 67 70 72 73 72 73 75 75 75 75 74 74 73 72 72 72 71 71 70
44 43 38 39 40 41 40 41 42 43 42 42 41 41 41 40 41 41 46 50 52 53 55 59 61 65 68 70 73 73 76 75 75 74 74 74 74 73 72 72 72 70 70 69
45 45 45 42 44 43 43 43 42 42 42 42 43 42 42 42 43 42 43 49 52 52 55 57 61 61 67 70 71 74 75 75 75 74 75 74 74 72 72 72 72 70 70 69
40 40 41 41 42 45 43 41 41 42 42 42 43 43 45 44 44 45 45 47 53 51 56 54 55 60 64 68 69 71 73 74 75 75 75 74 73 73 72 71 71 63 63 60
Lifted_Index
2 2 1 0 -1 -2 -2 -2 -2 -1 -1 -2 -2 -2 -2 -2 -2 -1 -1 -0 -0 -1 -1 -1 -1 -2 -2 -3 -3 -3 -3 -3 -3 -3 -3 -2 -2 -2 -1 -1 -2 -2 -2 -2
3 2 2 0 -1 -2 -2 -2 -2 -2 -2 -2 -2 -1 -2 -2 -2 -2 -1 -0 -0 -1 -1 -1 -1 -2 -2 -3 -3 -3 -3 -3 -3 -3 -3 -3 -2 -2 -2 -2 -2 -2 -2 -2
3 3 2 1 -1 -2 -2 -1 -2 -2 -1 -1 -1 -1 -1 -2 -2 -2 -1 -1 0 -0 -1 -1 -1 -2 -2 -3 -3 -3 -3 -3 -4 -3 -3 -3 -3 -3 -3 -2 -2 -2 -2 -2
4 4 3 1 -1 -2 -2 -1 -1 -2 -1 -0 -0 -0 -1 -2 -2 -2 -1 -1 -0 -1 -1 -2 -2 -2 -3 -3 -3 -3 -3 -3 -4 -4 -4 -3 -3 -3 -3 -2 -2 -2 -2 -2
5 4 4 2 0 -1 -2 -1 -2 -2 -1 -1 -0 -0 -1 -1 -2 -2 -1 -1 -1 -1 -2 -2 -2 -2 -2 -3 -3 -3 -3 -3 -4 -4 -4 -4 -3 -3 -3 -3 -2 -2 -2 -2
5 5 4 3 1 -1 -1 -1 -2 -2 -1 -1 -0 -0 -1 -1 -1 -1 -1 -1 -1 -2 -2 -2 -2 -2 -2 -3 -3 -3 -4 -4 -4 -4 -4 -4 -4 -4 -3 -3 -2 -2 -2 -2
5 5 4 4 2 1 -0 -1 -2 -2 -1 -1 -1 -1 -1 -1 -1 -1 -1 -1 -2 -3 -3 -3 -2 -2 -2 -3 -3 -3 -4 -4 -4 -4 -4 -4 -4 -4 -4 -3 -3 -2 -2 -2
5 4 4 3 2 1 0 -1 -1 -1 -1 -1 -1 -1 -1 -0 -0 -1 -1 -1 -2 -3 -3 -3 -3 -3 -3 -3 -3 -4 -4 -4 -5 -5 -5 -5 -5 -5 -5 -4 -3 -2 -2 -2
4 4 3 2 1 1 1 -0 -1 -1 -1 -1 -1 -1 -0 -0 -0 -0 -0 -0 -1 -2 -3 -3 -3 -3 -3 -3 -4 -4 -4 -5 -5 -5 -5 -5 -6 -6 -5 -4 -4 -3 -3 -3
4 3 2 1 0 0 0 0 -0 -0 -0 -0 -1 -1 -1 -0 -0 -0 -0 0 -0 -2 -3 -4 -4 -4 -3 -3 -4 -4 -5 -5 -6 -6 -6 -6 -6 -6 -5 -5 -4 -4 -3 -3
3 2 1 0 -0 -0 -0 -0 0 0 -0 -0 -1 -1 -1 -1 -0 -0 0 -0 -1 -2 -3 -3 -4 -4 -4 -4 -4 -5 -5 -6 -6 -6 -6 -6 -6 -6 -5 -5 -5 -4 -4 -4
3 2 1 0 -0 -1 -1 -0 -0 -0 -0 -0 -0 -0 -0 -0 -0 0 0 -0 -2 -3 -3 -4 -4 -5 -5 -5 -5 -5 -5 -6 -6 -6 -7 -7 -6 -6 -5 -5 -5 -4 -4 -4
2 1 1 0 -0 -1 -1 -1 -0 -1 -1 -1 -0 -0 0 0 0 0 0 -1 -2 -3 -4 -4 -4 -5 -5 -5 -5 -6 -6 -6 -6 -6 -7 -7 -7 -6 -6 -5 -5 -5 -5 -5
1 1 1 1 0 -0 -0 -0 -0 -0 -0 -1 -1 -1 -0 0 0 0 0 -0 -1 -3 -4 -4 -4 -5 -6 -6 -6 -6 -6 -6 -6 -6 -7 -7 -6 -6 -6 -6 -5 -5 -5 -5
1 1 1 1 1 0 -0 -0 -0 -0 -0 -0 -1 -1 -0 -0 0 1 1 0 -1 -2 -3 -4 -4 -5 -6 -6 -6 -6 -6 -6 -6 -6 -7 -7 -6 -6 -6 -6 -5 -5 -5 -4
1 1 1 0 0 0 -0 -0 -1 -1 -0 -0 -0 -0 -0 -0 1 1 1 0 -1 -2 -3 -4 -4 -5 -6 -6 -7 -7 -7 -6 -6 -7 -7 -7 -7 -6 -6 -5 -5 -5 -4 -4
1 1 0 -0 0 -0 -0 -0 -1 -1 -1 -1 -1 -1 -1 -0 0 0 -0 -1 -2 -3 -3 -4 -4 -5 -6 -7 -8 -8 -7 -7 -7 -7 -7 -7 -7 -6 -6 -5 -5 -4 -4 -3
1 1 0 0 -0 -0 -0 -0 -0 -0 -1 -1 -1 -2 -2 -2 -2 -3 -3 -4 -4 -4 -5 -5 -5 -5 -6 -7 -8 -8 -8 -8 -8 -8 -8 -7 -7 -6 -5 -5 -4 -4 -3 -3
1 1 1 0 -0 -0 0 0 0 -0 -1 -1 -2 -2 -3 -3 -4 -4 -5 -5 -5 -6 -6 -6 -6 -6 -7 -7 -8 -8 -9 -9 -9 -9 -8 -8 -7 -6 -5 -5 -5 -4 -4 -3
0 0 0 -0 -0 -0 0 0 0 -0 -0 -1 -1 -2 -3 -3 -4 -4 -4 -5 -5 -6 -7 -7 -7 -7 -8 -8 -8 -9 -9 -10 -9 -9 -9 -8 -7 -6 -6 -5 -5 -4 -4 -4
-0 -0 -0 -0 -0 -0 0 0 -0 -0 0 0 0 -0 -1 -2 -2 -3 -3 -3 -4 -5 -6 -7 -7 -8 -8 -9 -9 -9 -10 -10 -10 -9 -9 -8 -8 -7 -6 -6 -5 -5 -5 -5
-1 -0 -0 -0 -0 0 0 0 -0 0 1 1 2 2 1 0 -0 -1 -1 -1 -2 -3 -5 -6 -7 -8 -9 -9 -9 -9 -10 -10 -10 -9 -9 -8 -8 -7 -7 -6 -5 -5 -5 -5
-0 -0 -0 -0 0 1 1 1 2 1 2 2 3 3 3 3 2 2 1 1 0 -1 -2 -4 -5 -7 -8 -9 -9 -9 -10 -10 -10 -9 -9 -9 -8 -7 -7 -6 -6 -5 -5 -5
0 0 0 1 1 2 2 3 3 3 3 3 4 4 4 4 4 4 4 3 2 1 0 -1 -3 -5 -7 -8 -9 -10 -10 -10 -10 -9 -9 -9 -8 -7 -7 -6 -6 -6 -5 -5
1 1 1 2 2 3 4 4 5 4 4 5 5 5 5 5 5 6 5 4 3 3 2 1 0 -2 -4 -6 -8 -9 -10 -10 -9 -9 -9 -9 -8 -8 -7 -6 -6 -6 -6 -5
1 1 1 2 3 4 4 5 5 5 5 5 6 6 6 6 6 6 6 5 4 3 3 2 2 0 -2 -4 -6 -8 -9 -9 -9 -9 -9 -9 -8 -8 -7 -6 -6 -6 -6 -6